Location: Camp Creek
(33.9000°N, 111.8167°W)
Time: 21:08:51
(UTC-07:00)

Cosmos 1656 - Visible Passes

Search period start: 28 May 2015 00:00
Search period end: 07 June 2015 00:00
Orbit: 799 x 849 km, 71.1° (Epoch: 27 May)

Date Brightness Start Highest point End Pass type
(mag) Time Alt. Az. Time Alt. Az. Time Alt. Az.
28 May 6.9 03:08:34 10° NE 03:10:10 11° NE 03:12:06 10° ENE visible
28 May 3.6 04:49:11 10° NNW 04:54:38 83° WSW 05:00:03 10° SSE visible
29 May 3.7 04:28:48 10° NNW 04:34:15 83° ENE 04:39:41 10° SSE visible
30 May 3.9 04:08:27 10° NNW 04:13:52 70° ENE 04:19:16 10° SSE visible
31 May 4.2 03:48:07 10° NNW 03:53:28 58° ENE 03:58:48 10° SSE visible
01 Jun 4.5 03:27:49 10° N 03:33:03 49° ENE 03:38:18 10° SE visible
02 Jun 4.8 03:07:32 10° N 03:12:38 41° ENE 03:17:45 10° SE visible
03 Jun 5.1 02:47:17 10° N 02:52:11 35° ENE 02:57:08 10° SE visible
03 Jun 4.6 04:31:18 10° NW 04:35:41 24° WSW 04:39:55 10° SSW visible
04 Jun 5.4 02:27:05 10° N 02:31:44 29° ENE 02:36:28 10° ESE visible
04 Jun 4.4 04:10:40 10° NW 04:15:21 29° WSW 04:19:56 10° SSW visible
05 Jun 5.6 02:06:54 10° N 02:11:16 25° ENE 02:15:46 10° ESE visible
05 Jun 4.2 03:50:06 10° NW 03:55:00 35° WSW 03:58:44 16° SSW visible
06 Jun 5.8 01:46:47 10° N 01:50:48 21° ENE 01:54:58 10° ESE visible
06 Jun 3.9 03:29:34 10° NW 03:34:40 42° WSW 03:36:56 28° SSW visible
